Temp
3 4 4 4 4 5 5 5 6 6 6 6 7 7 8 8 8 8 8 8 8 8 8 8 8 8 8 8 8 8 7 9 11 11 11 10 11 12 12 12 12 13 13 13 14
3 3 3 3 3 4 4 4 5 5 6 6 6 7 7 7 7 7 8 8 8 8 8 8 7 7 7 8 7 7 8 10 10 10 10 11 11 12 12 12 12 12 13 13 13
2 2 2 2 3 3 3 3 4 4 5 5 6 6 6 7 7 7 8 8 8 8 8 7 7 6 6 6 6 7 7 9 10 9 9 11 10 11 11 12 12 12 12 13 13
2 2 2 2 3 3 3 3 4 4 4 4 5 5 5 6 3 6 6 6 7 7 7 7 7 7 6 5 6 6 7 7 8 8 8 10 11 10 11 11 12 11 12 12 12
2 2 2 2 3 3 3 3 4 4 4 4 4 5 5 5 4 5 5 5 5 5 5 6 6 6 5 5 6 6 7 7 7 7 7 8 11 11 10 11 10 10 12 12 12
2 2 2 3 3 3 3 3 3 3 4 3 3 4 4 3 4 4 4 4 5 5 5 5 5 4 3 4 5 6 6 6 7 7 7 7 11 8 11 11 10 10 12 12 13
2 2 2 2 2 2 3 3 3 3 3 3 3 3 3 3 3 3 3 3 4 4 4 4 4 3 3 3 3 4 5 6 6 7 7 6 7 10 11 10 11 10 12 12 13
2 2 2 2 2 2 2 2 2 3 3 3 2 2 2 2 2 2 2 2 3 3 3 3 3 3 3 2 2 3 4 5 7 7 7 6 7 12 10 10 10 12 12 12 13
2 2 2 2 2 2 2 2 2 2 2 2 2 1 -1 0 -0 0 1 1 1 1 2 2 2 2 1 1 2 4 5 6 7 7 7 5 7 12 12 9 10 11 12 12 12
2 2 2 2 2 2 2 2 2 1 1 1 0 -0 -1 -0 -0 -1 -1 -1 -0 -0 0 1 -0 -0 1 2 3 5 6 6 7 8 7 7 6 8 9 9 10 9 9 10 11
1 2 2 2 2 2 1 1 1 1 1 -0 -1 -1 -0 -0 -1 -2 -2 -1 -1 -1 -1 -0 -0 1 1 2 3 4 5 6 7 7 7 7 7 7 8 8 9 9 9 9 9
1 1 1 1 1 1 1 0 -0 -0 0 -1 -2 -2 -2 -2 -1 -2 -2 -2 -2 -1 -1 -1 -0 0 0 0 1 2 2 4 4 4 6 7 7 7 7 8 8 8 8 9 11
1 1 1 1 0 0 0 -0 -0 -0 -1 -2 -2 -2 -3 -3 -3 -2 -3 -3 -2 -1 -1 -1 0 0 -1 -1 -0 0 1 2 3 4 4 5 6 7 7 7 7 7 7 9 10
1 1 0 0 0 -0 -0 -1 -1 -1 -3 -2 -3 -3 -3 -2 -2 -3 -3 -3 -2 -2 -1 -1 -0 -1 -1 -1 -0 0 1 2 2 3 4 5 7 7 7 7 7 7 7 8 10
1 1 0 -0 -0 -1 -1 -1 -1 -2 2 -2 -3 -2 -3 -3 -3 -2 -3 -3 -3 -2 -2 -1 -0 -0 -0 -0 -0 0 1 1 2 2 3 4 5 7 7 7 7 8 7 7 10
0 0 -0 -1 -1 -1 -1 -2 -2 -2 1 -2 -3 -3 -3 -2 -3 -3 -3 -3 -2 -2 -2 -1 -1 -1 -1 -1 -1 -0 0 1 2 2 5 5 5 6 7 8 8 8 8 7 8
0 0 -0 -1 -1 -1 -2 -2 -2 -0 -2 -2 -3 -3 -3 -2 -2 -3 -3 -2 -2 -2 -1 -1 -1 -1 -2 -2 -1 -0 -0 2 3 3 5 5 5 5 7 6 8 7 7 7 7
0 -0 -1 -1 -2 -2 -2 -3 -1 -2 -2 -3 -3 -3 -3 -3 -3 -3 -3 -2 -2 -3 -3 -2 -1 -3 -2 -3 -1 -1 0 1 3 5 6 4 5 6 6 6 6 6 6 6 6
0 -0 -1 -1 -2 -2 -2 -2 -2 -3 -4 -4 -4 -2 -2 -3 -3 -3 -2 -2 -3 -3 -4 -3 -2 -2 -4 -4 -4 -2 -0 1 2 2 6 7 5 5 6 5 6 7 6 6 6
0 -0 -1 -2 -2 -2 -3 -3 -3 -4 -5 -5 -4 -3 -3 -3 -3 -3 -3 -3 -3 -4 -4 -4 -4 -2 -4 -4 -3 -2 -1 1 1 2 5 8 7 6 7 5 6 5 5 5 6
-0 -1 -1 -2 -2 -3 -4 -3 -4 -4 -5 -5 -4 -4 -4 -4 -4 -3 -3 -3 -4 -4 -4 -4 -4 -2 -2 -4 -4 -1 -0 -1 -0 2 5 7 8 7 6 6 5 4 4 4 7
-0 -2 -2 -2 -3 -3 -4 -3 -3 -4 -6 -6 -6 -5 -5 -4 -5 -4 -4 -4 -4 -5 -4 -4 -4 -3 -1 -2 -3 -3 -2 -1 0 1 2 4 6 5 5 3 4 4 3 5 4
-0 -1 -2 -2 -3 -4 -4 -3 -3 -5 -6 -6 -6 -5 -6 -5 -5 -5 -5 -5 -5 -5 -5 -5 -4 -3 -0 -2 -2 -2 -2 -2 -1 -0 -0 5 5 4 3 4 4 4 3 3 3
-2 -2 -2 -3 -3 -3 -4 -6 -6 -6 -6 -6 -6 -6 -6 -6 -5 -5 -5 -5 -6 -6 -6 -6 -5 -4 -2 -1 -2 -2 -2 -2 -1 -1 2 2 4 5 4 4 3 3 3 3 3
-3 -3 -3 -3 -5 -4 -4 -5 -6 -6 -6 -7 -6 -6 -6 -6 -6 -6 -5 -6 -6 -6 -6 -6 -5 -3 -2 -2 -2 -2 -2 -2 -1 -0 1 2 2 3 3 3 2 2 2 3 3
-4 -3 -3 -3 -4 -5 -6 -6 -7 -6 -7 -6 -7 -7 -7 -7 -6 -6 -6 -6 -6 -6 -5 -5 -5 -4 -3 -2 -2 -2 -2 -1 -1 -1 -0 -0 0 1 1 1 1 1 2 3 4
-4 -3 -2 -3 -4 -6 -7 -7 -7 -8 -4 -6 -7 -7 -7 -6 -6 -6 -5 -5 -6 -5 -5 -6 -5 -4 -3 -2 -3 -2 -1 -0 -0 0 0 0 1 1 1 1 1 1 1 5 5
Height
3114 3113 3112 3111 3110 3109 3108 3107 3106 3106 3105 3105 3105 3105 3105 3106 3106 3108 3111 3114 3113 3114 3117 3120 3123 3126 3129 3130 3132 3134 3134 3130 3133 3137 3138 3138 3141 3145 3145 3146 3147 3150 3148 3147 3150
3112 3111 3110 3108 3108 3107 3106 3104 3103 3102 3102 3101 3099 3098 3099 3099 3100 3101 3104 3104 3105 3107 3111 3112 3116 3119 3121 3123 3124 3124 3123 3123 3131 3133 3133 3134 3138 3141 3141 3142 3144 3144 3144 3145 3147
3111 3110 3108 3107 3106 3105 3104 3102 3101 3100 3099 3097 3096 3096 3094 3094 3095 3093 3095 3096 3097 3100 3102 3105 3110 3111 3113 3114 3116 3117 3110 3123 3125 3127 3128 3130 3131 3136 3136 3137 3141 3142 3144 3142 3143
3111 3109 3108 3107 3106 3105 3104 3102 3101 3099 3097 3095 3094 3092 3090 3091 3095 3089 3090 3091 3092 3093 3096 3099 3103 3104 3105 3105 3111 3110 3108 3113 3118 3122 3118 3122 3126 3125 3130 3131 3137 3134 3135 3138 3139
3112 3110 3109 3107 3106 3104 3102 3100 3099 3098 3096 3094 3092 3089 3088 3087 3086 3085 3086 3086 3086 3088 3090 3091 3094 3097 3096 3102 3106 3098 3104 3108 3112 3112 3113 3116 3116 3117 3120 3123 3126 3128 3129 3132 3135
3113 3111 3109 3108 3106 3104 3101 3100 3097 3095 3093 3092 3090 3088 3086 3086 3083 3082 3081 3081 3080 3081 3082 3085 3087 3090 3087 3092 3095 3099 3099 3100 3103 3105 3106 3108 3108 3113 3108 3116 3117 3118 3121 3125 3129
3112 3110 3108 3106 3105 3103 3099 3097 3095 3093 3092 3091 3089 3087 3086 3086 3082 3080 3079 3078 3077 3076 3076 3077 3080 3081 3084 3084 3086 3089 3090 3092 3090 3094 3097 3104 3098 3093 3103 3107 3109 3111 3116 3119 3121
3111 3110 3108 3106 3104 3101 3098 3096 3094 3091 3089 3087 3086 3084 3083 3082 3079 3078 3077 3075 3073 3071 3071 3071 3073 3073 3074 3078 3078 3081 3084 3080 3074 3088 3089 3099 3081 3083 3098 3100 3100 3105 3109 3111 3113
3110 3109 3107 3105 3103 3100 3097 3094 3091 3089 3087 3085 3083 3082 3083 3079 3077 3075 3075 3073 3071 3070 3067 3065 3065 3065 3070 3072 3075 3074 3067 3067 3072 3078 3085 3086 3069 3078 3088 3093 3093 3095 3099 3103 3106
3107 3105 3104 3101 3100 3097 3095 3092 3088 3086 3084 3081 3080 3082 3080 3078 3075 3072 3070 3069 3068 3066 3064 3063 3061 3062 3064 3067 3057 3062 3061 3064 3066 3071 3075 3074 3061 3072 3079 3079 3083 3087 3089 3093 3096
3104 3102 3100 3098 3096 3094 3091 3088 3087 3083 3080 3078 3077 3076 3077 3076 3072 3069 3066 3065 3064 3062 3061 3062 3061 3058 3060 3060 3058 3060 3058 3054 3058 3062 3063 3061 3056 3063 3069 3071 3072 3076 3078 3081 3084
3101 3098 3096 3094 3092 3090 3087 3085 3083 3082 3077 3073 3072 3072 3071 3070 3068 3067 3066 3064 3063 3061 3059 3058 3054 3055 3054 3054 3053 3053 3052 3049 3054 3055 3055 3055 3047 3055 3059 3059 3063 3066 3067 3070 3073
3098 3095 3093 3090 3088 3087 3084 3082 3078 3076 3073 3069 3070 3070 3070 3068 3065 3063 3063 3061 3060 3057 3055 3052 3051 3051 3050 3049 3048 3047 3047 3048 3048 3051 3049 3049 3041 3045 3049 3050 3053 3053 3055 3058 3061
3096 3093 3090 3088 3086 3083 3081 3078 3076 3073 3071 3072 3071 3069 3067 3064 3063 3060 3058 3058 3056 3053 3050 3046 3046 3046 3045 3044 3044 3040 3043 3043 3044 3045 3039 3044 3030 3037 3041 3040 3043 3045 3049 3050 3052
3093 3089 3086 3084 3083 3081 3078 3075 3072 3070 3067 3071 3069 3065 3063 3064 3060 3060 3055 3053 3050 3047 3047 3041 3041 3041 3039 3037 3038 3033 3036 3036 3036 3036 3038 3033 3033 3023 3032 3032 3034 3038 3040 3042 3044
3090 3086 3083 3081 3079 3077 3074 3072 3069 3072 3067 3069 3066 3064 3062 3060 3057 3054 3052 3049 3046 3041 3039 3036 3036 3035 3032 3031 3030 3030 3030 3030 3030 3029 3020 3020 3027 3017 3024 3026 3029 3032 3034 3035 3036
3087 3084 3081 3079 3078 3074 3073 3071 3073 3068 3069 3068 3064 3061 3058 3056 3054 3051 3047 3045 3044 3040 3033 3032 3029 3027 3025 3024 3024 3025 3026 3021 3020 3014 3005 3016 3020 3016 3018 3019 3020 3025 3027 3029 3029
3084 3081 3079 3077 3075 3073 3072 3073 3071 3068 3067 3064 3061 3058 3056 3053 3050 3048 3045 3043 3041 3038 3033 3029 3026 3023 3020 3019 3019 3019 3018 3014 3003 2998 3002 3012 3006 3006 3013 3017 3019 3020 3022 3022 3021
3082 3079 3076 3075 3073 3071 3071 3072 3070 3067 3064 3062 3058 3056 3054 3052 3049 3045 3043 3041 3039 3037 3035 3028 3023 3020 3012 3008 3012 3011 3012 3013 3005 3003 2989 2989 3002 3009 3008 3011 3013 3017 3016 3017 3015
3081 3077 3073 3072 3070 3069 3071 3069 3067 3062 3060 3060 3058 3056 3053 3050 3048 3044 3041 3039 3037 3035 3033 3028 3020 3016 3010 3005 3004 3006 3011 3010 3006 3003 2986 2980 2988 2995 2995 3003 3010 3011 3012 3012 3010
3079 3075 3072 3069 3068 3068 3067 3066 3061 3059 3057 3058 3055 3053 3051 3048 3046 3043 3040 3037 3033 3032 3029 3025 3020 3014 3010 3004 3003 3004 3004 3009 3006 3001 2986 2977 2980 2987 2993 2995 3002 3006 3007 3007 3005
3077 3074 3071 3067 3067 3064 3064 3060 3057 3055 3054 3054 3051 3049 3048 3046 3042 3040 3037 3035 3031 3028 3024 3021 3016 3010 3005 3002 3002 3002 3000 3001 3000 3001 2993 2983 2982 2985 2989 2995 3000 3001 3000 2999 2999
3073 3071 3068 3065 3064 3062 3059 3057 3055 3053 3053 3051 3049 3048 3045 3043 3039 3035 3033 3030 3026 3024 3020 3017 3014 3009 2999 3000 3000 3000 3001 3001 3000 2997 2995 2983 2982 2987 2990 2994 2996 2997 2997 2997 2998
3071 3068 3065 3063 3061 3059 3056 3055 3053 3050 3048 3048 3045 3044 3042 3039 3038 3030 3026 3024 3022 3020 3017 3016 3011 3010 3004 2995 2999 2999 2999 2998 2998 2997 2990 2987 2983 2985 2988 2990 2993 2994 2994 2993 2995
3068 3066 3064 3062 3059 3056 3053 3051 3050 3050 3047 3045 3042 3041 3039 3035 3031 3026 3023 3019 3017 3014 3011 3011 3005 3003 2999 2996 2996 2995 2994 2994 2992 2991 2988 2984 2984 2984 2987 2989 2991 2989 2989 2990 2991
3067 3063 3061 3057 3054 3052 3050 3050 3048 3047 3045 3041 3039 3036 3033 3030 3028 3018 3018 3014 3010 3009 3008 3006 3001 2999 2994 2992 2989 2987 2986 2986 2985 2985 2985 2985 2980 2981 2981 2981 2982 2984 2985 2985 2987
3062 3060 3057 3054 3051 3049 3049 3046 3043 3041 3039 3037 3034 3030 3027 3025 3022 3016 3012 3008 3006 3004 3002 3001 2999 2997 2989 2988 2986 2982 2977 2976 2975 2976 2978 2975 2976 2974 2974 2975 2977 2979 2980 2980 2983
Wind_Speed
13 14 15 16 17 18 18 19 20 22 23 23 24 26 28 28 29 28 30 29 31 33 33 34 33 34 34 34 33 29 27 30 30 26 22 16 18 18 17 16 14 13 13 19 23
10 10 10 10 10 10 10 11 12 14 15 16 18 22 22 23 25 26 27 29 31 33 33 35 34 34 37 37 36 35 33 35 27 22 22 20 19 15 18 19 19 12 21 19 20
9 8 7 6 5 5 5 7 8 9 10 10 12 15 18 19 18 21 24 27 30 33 34 35 37 37 39 34 38 36 45 32 30 24 23 24 25 20 21 23 25 18 16 21 24
7 7 7 7 6 6 8 8 9 10 10 10 10 9 11 11 5 15 16 18 23 28 32 36 37 39 39 38 33 39 40 39 37 26 29 32 29 32 30 29 24 29 27 27 26
7 7 8 8 9 10 10 10 10 9 10 11 11 11 11 6 8 11 14 17 22 23 26 32 36 37 40 32 35 42 42 36 34 32 30 33 37 37 34 33 29 30 36 30 27
8 9 10 10 11 11 12 11 13 13 13 11 12 13 12 5 5 6 7 10 17 20 27 28 30 32 34 33 36 36 35 43 38 33 31 37 45 34 44 41 37 36 41 39 35
8 10 12 13 13 14 15 15 14 13 13 12 13 11 9 4 10 12 11 11 11 15 21 26 30 32 26 27 32 35 39 36 36 42 42 29 44 54 45 39 43 40 44 43 42
10 10 11 13 14 15 17 17 16 16 16 15 14 11 9 11 13 12 13 15 15 16 15 20 25 33 35 29 25 23 32 41 51 38 37 34 48 57 41 37 41 49 47 44 43
13 13 13 15 15 16 17 17 17 16 15 15 14 11 2 12 12 14 14 11 15 14 18 19 18 25 24 29 29 32 41 44 44 41 39 30 53 55 49 34 37 42 50 47 48
14 15 16 16 17 17 18 17 17 16 15 13 7 6 8 8 12 15 15 14 14 18 18 16 16 17 21 29 41 41 39 43 42 35 36 43 53 45 31 29 42 41 40 38 46
14 15 16 17 17 18 18 18 20 17 19 14 13 8 10 7 15 14 14 16 16 16 12 14 16 21 21 28 37 38 38 36 35 34 36 42 53 47 41 41 40 38 45 44 41
16 17 17 16 16 18 18 17 15 16 16 16 12 8 12 17 15 9 14 12 12 13 12 14 20 18 20 23 29 33 37 42 30 23 33 41 47 41 39 42 43 43 42 46 58
16 17 18 17 17 16 17 17 17 19 20 9 8 9 7 15 16 8 14 11 16 17 16 19 20 16 17 17 25 32 34 37 38 24 27 30 40 39 39 36 38 41 41 48 50
18 16 15 16 16 17 17 16 16 18 4 3 3 5 8 17 9 15 8 13 14 20 18 22 18 18 21 23 24 29 32 32 33 34 33 25 29 35 35 38 40 41 40 41 48
19 18 14 14 15 15 17 16 18 12 4 3 4 11 15 13 14 7 12 13 18 21 17 25 22 22 23 24 25 31 25 31 29 34 38 41 30 32 29 33 33 31 31 32 42
19 17 14 13 14 15 15 17 16 3 0 4 7 14 15 13 9 12 16 15 17 16 16 21 19 22 27 29 27 25 23 27 29 31 28 41 38 35 35 33 28 24 26 24 25
18 17 14 12 13 14 14 15 5 4 7 5 11 15 18 10 12 13 18 14 13 13 13 18 16 17 19 21 23 21 24 17 21 25 19 32 30 30 12 5 18 12 13 12 13
18 17 14 11 12 12 12 5 6 4 10 12 14 19 9 11 10 16 13 15 9 13 16 11 16 9 17 24 25 29 27 23 20 17 24 40 31 34 28 28 22 13 9 9 9
17 17 16 10 12 11 10 5 4 8 8 13 18 9 7 11 16 16 16 10 7 13 11 17 12 22 20 13 18 28 30 30 34 27 20 32 36 34 21 17 9 11 10 10 12
15 16 11 12 12 10 5 7 5 11 11 10 12 8 14 17 14 14 13 9 12 11 12 18 27 16 15 20 21 23 23 21 27 15 17 18 29 22 22 33 14 8 2 5 14
14 13 12 13 12 5 7 6 11 10 12 6 10 16 15 15 11 14 9 16 8 13 18 20 14 20 17 10 6 18 27 21 22 25 16 12 18 25 17 19 20 8 3 5 7
15 5 12 13 8 10 8 14 16 10 7 13 11 11 12 13 16 16 14 15 20 18 22 17 11 18 19 9 6 5 11 16 21 17 30 26 7 9 23 17 10 1 5 4 9
20 10 12 8 8 12 14 13 10 7 7 7 9 10 13 15 14 11 18 14 21 18 9 12 6 16 13 6 10 8 13 15 16 15 20 20 12 13 13 9 4 7 8 10 17
18 12 15 6 12 13 14 6 7 10 10 6 13 15 11 14 15 17 25 18 16 17 18 17 18 18 18 23 11 12 11 13 18 20 25 27 26 18 17 16 16 15 16 16 18
18 13 15 12 9 11 14 10 8 10 7 12 7 8 12 19 23 20 14 24 24 22 16 14 19 17 22 24 21 21 21 21 25 26 27 27 26 27 27 26 23 21 23 21 14
16 14 19 13 11 12 9 5 7 7 14 11 14 15 19 22 22 33 28 23 27 17 11 12 16 14 21 19 20 24 25 26 28 30 30 31 35 32 31 29 26 22 20 19 13
13 14 22 19 9 10 6 8 10 15 8 10 15 19 19 19 21 26 23 19 23 24 20 17 15 11 19 12 13 17 20 23 27 26 27 32 30 28 29 29 26 23 21 19 13
Wind_Direction
294 290 288 285 283 281 280 278 276 273 273 274 271 269 266 265 263 258 254 253 246 243 240 241 240 236 236 239 241 238 235 243 243 242 247 240 241 234 239 218 213 206 200 199 183
319 315 310 305 299 293 290 286 283 283 284 285 282 275 271 266 262 260 255 251 246 244 241 239 238 236 236 235 235 232 235 241 246 245 245 250 245 232 233 229 215 207 215 200 191
337 340 343 344 346 351 351 336 326 327 326 310 296 293 285 279 273 261 253 250 248 243 239 239 236 234 236 232 230 236 238 243 248 247 243 251 242 237 236 222 214 209 208 194 183
21 27 23 22 21 14 4 353 346 360 4 357 347 320 294 283 237 256 255 253 248 245 243 238 235 235 236 233 233 237 240 244 243 248 252 247 242 240 239 235 219 226 205 191 182
41 29 21 13 2 352 353 348 346 352 359 7 5 1 347 317 279 274 263 254 252 251 247 241 234 231 234 239 237 241 242 243 249 243 247 246 241 242 241 236 236 235 213 206 207
25 13 12 11 359 349 341 343 336 338 350 358 358 348 356 35 321 329 311 278 262 253 250 247 245 236 239 237 236 243 251 248 243 245 245 246 244 247 238 233 242 240 224 216 220
5 359 353 353 350 343 337 338 333 331 336 341 346 341 340 355 341 334 333 326 306 272 261 253 250 245 240 250 244 242 247 246 244 240 243 248 251 240 242 238 236 244 236 229 231
331 336 337 338 340 340 334 332 330 331 333 337 336 331 330 341 338 335 340 330 319 310 291 267 254 253 247 245 244 246 246 246 243 240 241 233 250 239 240 245 246 235 240 241 238
317 320 324 326 330 333 332 329 328 327 326 327 324 328 331 335 343 330 333 333 311 304 301 298 272 257 250 245 252 244 242 241 249 238 236 225 244 246 239 240 242 242 239 240 239
312 310 314 316 320 328 328 328 331 327 326 328 317 342 325 332 328 326 325 323 314 305 302 287 282 262 250 233 236 238 241 248 250 243 235 236 247 243 243 249 243 245 250 251 250
326 316 313 314 318 324 326 330 340 335 332 319 297 296 298 322 336 330 314 320 322 315 282 266 263 259 262 248 250 250 251 253 250 248 242 237 247 248 246 246 247 245 246 250 253
334 324 324 324 324 326 328 333 334 326 324 302 289 290 312 325 347 330 328 317 307 300 290 269 264 275 267 256 251 248 248 248 250 248 237 239 247 249 247 246 248 253 253 253 250
338 328 327 327 325 325 329 331 332 333 325 291 254 287 297 330 324 318 321 305 306 293 282 269 267 275 274 271 260 250 248 247 245 255 244 241 251 246 243 246 245 248 254 255 259
340 332 325 324 323 327 330 331 333 335 319 236 279 280 313 325 306 318 297 312 302 291 282 270 278 270 266 265 264 264 249 248 246 240 242 230 256 248 250 253 254 255 257 260 260
340 337 331 322 320 327 328 335 336 342 279 270 267 308 324 322 304 313 312 312 301 296 272 266 274 278 271 265 263 262 256 242 240 241 245 244 258 257 247 249 250 254 256 260 261
342 340 339 329 328 331 335 338 335 358 258 312 302 321 325 322 311 310 313 310 304 293 280 280 283 268 270 267 260 255 249 241 239 239 237 238 238 255 253 253 249 254 261 260 258
341 340 341 333 332 335 340 341 328 279 318 306 314 319 321 317 318 328 332 323 315 311 305 301 294 294 278 269 240 240 237 238 222 233 238 230 232 239 223 293 229 218 231 235 247
338 339 341 331 334 336 341 343 278 285 314 307 319 320 313 330 319 332 333 320 308 316 314 320 312 316 276 259 246 229 226 231 225 228 232 232 239 228 238 252 232 270 240 242 262
337 338 337 331 332 331 349 290 275 308 311 316 328 317 320 330 319 324 325 317 317 319 325 319 297 313 293 225 242 234 241 236 261 278 254 225 222 240 234 238 228 222 249 257 257
338 337 337 329 327 324 325 286 282 302 308 315 312 303 315 319 314 322 320 306 309 306 315 310 306 314 303 321 222 233 222 229 242 256 239 226 209 220 226 224 209 210 205 303 256
346 339 335 330 329 334 305 282 306 301 303 300 295 294 302 312 304 309 289 305 296 303 302 303 289 296 303 314 282 218 221 244 248 248 263 223 215 224 234 168 179 177 199 356 245
354 343 332 334 336 324 322 304 313 313 304 299 292 290 296 302 301 299 287 288 298 300 305 296 289 292 298 279 267 239 237 233 246 226 254 275 80 156 162 155 153 131 14 129 10
1 349 340 338 331 319 321 324 315 310 300 296 276 286 296 295 301 285 293 290 303 299 297 311 282 310 304 210 216 242 263 248 241 265 261 254 241 177 169 165 239 292 309 336 346
341 356 344 336 326 321 320 311 323 318 324 285 293 286 289 292 293 288 294 299 293 293 282 292 279 272 277 289 299 278 258 250 248 256 250 245 254 219 225 268 282 293 298 317 335
350 340 352 323 314 316 315 308 311 318 306 304 308 281 291 297 298 297 292 299 295 293 287 260 268 272 275 274 276 270 262 254 251 251 260 256 257 254 256 269 273 284 297 303 318
341 327 334 342 319 320 309 308 300 301 308 302 288 291 295 292 287 295 301 303 298 299 282 259 266 278 278 274 270 267 263 259 254 251 252 255 262 257 264 272 280 288 294 281 285
329 316 336 342 336 316 287 301 297 311 332 315 305 304 305 300 298 299 290 296 272 284 273 251 260 270 278 281 282 275 268 262 259 256 255 256 261 267 266 268 274 279 281 255 262